Regional Weather Roundup
Issued by NWS

Home | Current Version | Previous Version | Text Only | Print | Product List | Glossary Off
Versions: 1 2 3 4 5 6 7 8 9 10 11 12 13 14 15 16 17 18 19 20 21 22 23 24 25 26 27 28 29 30 31 32 33 34 35 36 37 38 39 40 41 42 43 44 45 46 47 48 49 50

000
ASUS44 KMEG 261510
RWRTN
TENNESSEE HOURLY STATE WEATHER ROUNDUP
NATIONAL WEATHER SERVICE MEMPHIS TN
1000 AM CDT MON JUN 26 2017

TNZ002-004-019-021-049-052-054-088>092-261600-
WEST TENNESSEE

CITY           SKY/WX    TMP DP  RH WIND       PRES   REMARKS
MEMPHIS INTL   CLOUDY    75  63  66 W3        30.20F
NWS MEMPHIS      N/A     72 N/A N/A MISG        N/A
JACKSON        CLOUDY    70  62  76 NE3       30.22S
SOMERVILLE     MOSUNNY   68  64  88 CALM      30.20F
COVINGTON      SUNNY     70  64  83 VRB3      30.22S
UNION CITY     PTSUNNY   70  59  68 CALM      30.23S
BOLIVAR        MOSUNNY   68  63  83 CALM      30.21S
PARIS          MOSUNNY   73  54  49 N7        30.23R
HUNTINGDON     PTSUNNY   73  55  53 NE8       30.22S
LEXINGTON      SUNNY     66  61  82 NE3       30.21S
SELMER         PTSUNNY   68  63  83 CALM      30.21F
SAVANNAH       SUNNY     70  63  78 CALM      30.21S
$$

TNZ008-025-027-028-033-062-065-066-261600-
NORTH MIDDLE TENNESSEE

CITY           SKY/WX    TMP DP  RH WIND       PRES   REMARKS
NASHVILLE      CLOUDY    72  52  49 NE7       30.22S
PORTLAND       MOSUNNY   72  54  53 VRB6      30.21S
CLARKSVILLE    MOSUNNY   74  49  41 NW9       30.22S
SMYRNA         PTSUNNY   70  59  68 NW5       30.23R
COOKEVILLE     SUNNY     68  57  68 CALM      30.21S
GALLATIN       SUNNY     72  54  53 CALM      30.24S
CROSSVILLE     CLOUDY    68  54  60 VRB5      30.24S
$$

TNZ061-075-076-078-094-096-097-261600-
SOUTH MIDDLE TENNESSEE

CITY           SKY/WX    TMP DP  RH WIND       PRES   REMARKS
FAYETTEVILLE   SUNNY     77  54  44 VRB6      30.21F
TULLAHOMA      SUNNY     75  54  46 SW5       30.22F
WINCHESTER     SUNNY     75  54  46 CALM      30.22F
MCMINNVILLE    SUNNY     73  61  64 VRB5      30.21F
COLUMBIA       PTSUNNY   68  61  77 NW5       30.20S
SHELBYVILLE    SUNNY     72  57  60 VRB3      30.21S
$$

TNZ017-018-042-046-047-261600-
NORTHEAST TENNESSEE

CITY           SKY/WX    TMP DP  RH WIND       PRES   REMARKS
TRI CITIES     CLOUDY    71  56  58 VRB3      30.21R
ELIZABETHTON   CLOUDY    72  55  56 VRB3      30.21S
$$

TNZ012-013-036-069-073-074-261600-
CENTRAL EAST TENNESSEE

CITY           SKY/WX    TMP DP  RH WIND       PRES   REMARKS
KNOXVILLE      PTSUNNY   69  59  70 VRB6      30.20F
OAK RIDGE      SUNNY     75  52  44 VRB5      30.21S
DOWNTOWN KNOXV SUNNY     72  61  68 W3        30.20S
GATLINBURG     SUNNY     72  54  53 CALM      30.19F
MORRISTOWN     SUNNY     73  54  49 W8        30.20S
JACKSBORO      SUNNY     73  54  49 SW3       30.23S
$$

TNZ083-085-099-261600-
SOUTHEAST TENNESSEE

CITY           SKY/WX    TMP DP  RH WIND       PRES   REMARKS
CHATTANOOGA    MOSUNNY   75  56  51 CALM      30.21F
$$

SKY/WX REPORTED AS FAIR MEANS FEW OR NO CLOUDS BELOW
12 THOUSAND FEET.





USA.gov is the U.S. government's official web portal to all federal, state and local government web resources and services.